Location: Colorado Springs
(38.8340°N, 104.8210°W)
Time: 07:02:55
(UTC-07:00)

N. Korean satellite - Pass Details

Date: 11 October 2017
Orbit: 461 x 513 km, 97.2° (Epoch: 16 December)

Event Time Altitude Azimuth Distance (km) Brightness Sun altitude
Rises 20:09:45 0° 212° (SSW) 2,561 10.6 -21.0°
Reaches altitude 10° 20:13:03 10° 245° (WSW) 1,672 10.1 -21.6°
Maximum altitude 20:14:25 12° 268° (W) 1,559 10.2 -21.9°
Drops below altitude 10° 20:15:47 10° 290° (WNW) 1,665 10.4 -22.1°
Sets 20:19:03 0° 324° (NW) 2,537 10.9 -22.7°
